[[{"header":{"parameterUnit":"m.s-1","parameterCategory":1,"la1":30.2991,"la2":30.254,"lo1":-89.0895,"lo2":-89.0444,"dy":0.0017,"dx":0.0017,"nx":28,"ny":28,"refTime":"2024-08-04T21:00:00:Z","depth":0,"parameterNumber":2,"parameterNumberName":"U-component_of_WINDS"},"data":[0,0,0,0,0,0,0,0,0,0,0,0,0,0,0,0,0,0,0,0,0,0,0,0,0,0,0,0,0,0,0,0,0,0,0,0,0,0,0,0,0,0,0,0,0,0,0,0,0,0,0,0,0,0,0,0,0,0,-1.0043,-1.0044,0,-1.0081,-1.0082,-1.0082,-1.0069,-1.0068,-1.0067,-1.0067,-1.0106,-1.0107,-1.0109,0,0,0,0,0,0,0,0,0,0,0,0,0,-0.9958,-0.996,-1.0043,-1.0044,-1.0044,-1.0081,-1.0082,-1.0082,-1.0069,-1.0068,-1.0067,-1.0066,-1.0105,-1.0107,-1.0109,0,0,0,0,0,0,0,0,0,0,0,0,0,-0.9996,-0.9961,-1.0043,-1.0042,-1.0042,-1.0081,-1.0082,-1.0082,-1.0069,-1.0068,-1.0067,-1.0066,-1.0104,-1.0107,-1.011,-1.0152,0,0,-1.0118,-1.0119,0,0,0,0,0,0,0,0,-0.9994,-0.9999,-1.0042,-1.0042,-1.0043,-1.0069,-1.0066,-1.0106,-1.007,-1.0059,-1.0067,-1.0065,-1.0095,-1.0098,-1.0108,-1.0153,-1.0155,-1.0118,-1.012,-1.0121,-1.0122,0,0,0,0,0,0,0,-0.9991,-0.9997,-1.0058,-1.0042,-1.0043,-1.004,-1.0043,-1.0074,-1.0083,-1.006,-1.0059,-1.0064,-1.0095,-1.0105,-1.0109,-1.0156,-1.0118,-1.0121,-1.0122,-1.0123,-1.0237,-1.0239,0,0,0,0,0,0,-0.9988,-0.9995,-1.0057,-1.0059,-1.0015,-1.0042,-1.0046,-1.0062,-1.0083,-1.0085,-1.0065,-1.0063,-1.0101,-1.0106,-1.011,-1.0161,-1.0121,-1.0124,-1.0125,-1.0236,-1.0238,-1.0239,0,0,0,0,0,0,-0.9987,-0.9994,-1.0056,-1.0027,-1.0035,-1.0045,-1.0062,-1.0063,-1.0074,-1.0087,-1.0088,-1.0074,-1.01,-1.0106,-1.0141,-1.0162,-1.0125,-1.0127,-1.0234,-1.0237,-1.0239,-1.0263,0,0,0,0,0,0,-0.9984,-0.9993,-1.001,-1.0028,-1.0036,-1.0087,-1.0064,-1.0065,-1.0079,-1.0077,-1.0096,-1.0098,-1.01,-1.0137,-1.0144,-1.0165,-1.0129,-1.0233,-1.0235,-1.0238,-1.026,-1.0265,-1.027,0,0,0,0,0,-0.9981,-1.0015,-1.0011,-1.0018,-1.0057,-1.0088,-1.0093,-1.0094,-1.0081,-1.0097,-1.0105,-1.0097,-1.0158,-1.0141,-1.0149,-1.0171,-1.0231,-1.0235,-1.0238,-1.0258,-1.0264,-1.027,0,0,0,0,0,0,-0.9999,-1.0017,-1.0013,-1.0053,-1.0069,-1.0086,-1.0106,-1.0101,-1.0121,-1.0119,-1.012,-1.0124,-1.016,-1.0169,-1.0149,-1.0212,-1.0193,-1.0198,-1.0206,-1.0212,-1.0217,-1.0214,-1.0132,0,0,0,0,0,-1.0008,-1.0032,-1.0046,-1.0081,-1.0089,-1.0096,-1.011,-1.011,-1.0126,-1.0133,-1.0143,-1.0159,-1.0182,-1.0197,-1.0219,-1.0261,-1.0265,-1.028,-1.0284,-1.0288,-1.0293,-1.0316,-1.0323,-1.025,-1.025,-1.025,0,0,-1.0027,-1.0039,-1.0054,-1.0085,-1.0097,-1.0121,-1.0102,-1.0129,-1.0147,-1.0137,-1.0171,-1.0179,-1.0197,-1.0236,-1.0253,-1.0244,-1.0314,-1.0292,-1.0295,-1.0298,-1.032,-1.0327,-1.0333,-1.0252,-1.0251,-1.0251,0,0,-1.0073,-1.0085,-1.0115,-1.0127,-1.0146,-1.0151,-1.0158,-1.0175,-1.018,-1.0214,-1.0207,-1.0228,-1.0267,-1.0281,-1.0293,-1.0343,-1.0337,-1.035,-1.0376,-1.0398,-1.0404,-1.0409,-1.0427,-1.0434,-1.0354,-1.0354,-1.0354,0,-1.0093,-1.013,-1.0131,-1.0158,-1.0172,-1.0163,-1.0194,-1.0206,-1.0231,-1.024,-1.0229,-1.0278,-1.029,-1.0331,-1.0344,-1.0353,-1.0362,-1.0348,-1.0403,-1.0408,-1.0413,-1.0431,-1.0437,-1.0356,-1.0355,-1.0355,-1.0355,0,-1.0155,-1.018,-1.0202,-1.0227,-1.0243,-1.0271,-1.0276,-1.0292,-1.029,-1.0296,-1.033,-1.0344,-1.0368,-1.0378,-1.0376,-1.0419,-1.0413,-1.0402,-1.0383,-1.0421,-1.0438,-1.0445,-1.0358,-1.0357,-1.0357,-1.0356,0,0,-1.0215,-1.0239,-1.0247,-1.0258,-1.0277,-1.0297,-1.0325,-1.0349,-1.0363,-1.038,-1.0403,-1.0436,-1.0427,-1.044,-1.044,-1.0459,-1.0499,-1.0446,-1.0447,-1.0456,-1.0548,-1.0556,-1.0564,-1.0494,-1.0495,-1.0496,-1.0546,0,-1.0263,-1.0313,-1.0314,-1.036,-1.0384,-1.0375,-1.04,-1.0414,-1.042,-1.0441,-1.0447,-1.0471,-1.0456,-1.0464,-1.0482,-1.049,-1.0517,-1.0486,-1.0517,-1.0518,-1.0514,-1.0573,-1.0582,-1.0629,-1.0553,-1.0554,-1.0555,0,-1.0327,-1.0346,-1.0394,-1.041,-1.042,-1.0442,-1.0464,-1.0484,-1.05,-1.0503,-1.0518,-1.0514,-1.0543,-1.0521,-1.0561,-1.054,-1.0552,-1.0557,-1.0559,-1.0563,-1.0539,-1.0579,-1.0643,-1.0651,-1.0565,-1.0564,-1.0563,0,-1.0367,-1.0404,-1.0438,-1.0448,-1.0467,-1.0483,-1.0492,-1.0506,-1.052,-1.0539,-1.0548,-1.057,-1.0582,-1.0599,-1.0601,-1.0586,-1.0641,-1.062,-1.0644,-1.0644,-1.0658,-1.0657,-1.0726,-1.0664,-1.0664,-1.0664,-1.0663,0,-1.0421,-1.0451,-1.0456,-1.0477,-1.051,-1.0511,-1.0544,-1.0551,-1.0564,-1.0586,-1.058,-1.0601,-1.0602,-1.0623,-1.0625,-1.0658,-1.0663,-1.0666,-1.0666,-1.0667,-1.0667,-1.0676,-1.0673,-1.0665,-1.0665,-1.0665,-1.0664,0,-1.0472,-1.0476,-1.0513,-1.0528,-1.0533,-1.0556,-1.0569,-1.0589,-1.0594,-1.0622,-1.0628,-1.0636,-1.066,-1.0664,-1.0693,-1.0694,-1.0733,-1.073,-1.0728,-1.0728,-1.0753,-1.0751,-1.0831,-1.0841,-1.0771,-1.0772,-1.0773,0,-1.0507,-1.053,-1.0548,-1.0562,-1.0572,-1.0595,-1.0609,-1.061,-1.0625,-1.0645,-1.0662,-1.0686,-1.0705,-1.0745,-1.0753,-1.0775,-1.0772,-1.0799,-1.0776,-1.0776,-1.0774,-1.0773,-1.0775,-1.0804,-1.0805,-1.0805,-1.0806,0,-1.0569,-1.057,-1.0591,-1.0613,-1.063,-1.0647,-1.0664,-1.0676,-1.0678,-1.0696,-1.0721,-1.0736,-1.0765,-1.0789,-1.0811,-1.0819,-1.0813,-1.0813,-1.082,-1.0821,-1.082,-1.0822,-1.0741,-1.0811,-1.0811,-1.081,-1.081,-1.081,-1.0614,-1.0634,-1.0649,-1.0673,-1.0685,-1.07,-1.072,-1.0726,-1.0747,-1.0772,-1.077,-1.0798,-1.0813,-1.0842,-1.0852,-1.0873,-1.0865,-1.0875,-1.0877,-1.088,-1.0883,-1.0815,-1.0877,-1.0877,-1.0877,-1.0877,-1.0877,0,-1.0676,-1.0685,-1.0707,-1.073,-1.0748,-1.074,-1.0758,-1.0774,-1.0798,-1.0813,-1.0832,-1.0861,-1.0884,-1.0893,-1.0915,-1.0931,-1.0929,-1.0937,-1.0936,-1.0938,-1.0889,-1.0881,-1.0938,-1.0938,-1.0938,-1.0938,-1.0938,-1.0938,-1.0711,-1.0744,-1.0747,-1.0786,-1.0795,-1.0823,-1.0833,-1.0847,-1.0859,-1.0891,-1.091,-1.0916,-1.0929,-1.0952,-1.0973,-1.0975,-1.0984,-1.0993,-1.0994,-1.0948,-1.0942,-1.0936,-1.0929,-1.0995,-1.0995,-1.1042,-1.1043,-1.1043]},{"header":{"parameterUnit":"m.s-1","parameterCategory":1,"la1":30.2991,"la2":30.254,"lo1":-89.0895,"lo2":-89.0444,"dy":0.0017,"dx":0.0017,"nx":28,"ny":28,"refTime":"2024-08-04T21:00:00:Z","depth":0,"parameterNumber":3,"parameterNumberName":"V-component_of_WINDS"},"data":[0,0,0,0,0,0,0,0,0,0,0,0,0,0,0,0,0,0,0,0,0,0,0,0,0,0,0,0,0,0,0,0,0,0,0,0,0,0,0,0,0,0,0,0,0,0,0,0,0,0,0,0,0,0,0,0,0,0,-4.1474,-4.1475,0,-4.1539,-4.154,-4.154,-4.152,-4.1519,-4.1518,-4.1516,-4.1581,-4.1584,-4.1587,0,0,0,0,0,0,0,0,0,0,0,0,0,-4.1331,-4.1333,-4.1474,-4.1475,-4.1475,-4.1539,-4.154,-4.1541,-4.1521,-4.1519,-4.1517,-4.1516,-4.158,-4.1583,-4.1587,0,0,0,0,0,0,0,0,0,0,0,0,0,-4.1394,-4.1334,-4.1474,-4.1473,-4.1474,-4.1539,-4.154,-4.1541,-4.1521,-4.1519,-4.1517,-4.1515,-4.1579,-4.1583,-4.1588,-4.1656,0,0,-4.1601,-4.1603,0,0,0,0,0,0,0,0,-4.139,-4.1399,-4.1472,-4.1473,-4.1474,-4.1519,-4.1513,-4.1579,-4.1521,-4.1503,-4.1516,-4.1514,-4.1562,-4.1568,-4.1584,-4.1659,-4.1662,-4.1602,-4.1604,-4.1606,-4.1608,0,0,0,0,0,0,0,-4.1386,-4.1396,-4.1499,-4.1473,-4.1475,-4.1469,-4.1476,-4.1525,-4.1543,-4.1504,-4.1503,-4.1511,-4.1562,-4.158,-4.1586,-4.1663,-4.1601,-4.1605,-4.1608,-4.161,-4.1799,-4.1801,0,0,0,0,0,0,-4.1381,-4.1393,-4.1497,-4.1501,-4.1426,-4.1473,-4.1481,-4.1507,-4.1543,-4.1546,-4.1513,-4.151,-4.1573,-4.158,-4.1588,-4.1672,-4.1606,-4.161,-4.1613,-4.1797,-4.1799,-4.1802,0,0,0,0,0,0,-4.1378,-4.1391,-4.1495,-4.1447,-4.146,-4.1478,-4.1507,-4.1509,-4.1527,-4.1549,-4.1552,-4.1528,-4.1572,-4.1582,-4.164,-4.1674,-4.1612,-4.1617,-4.1794,-4.1797,-4.1801,-4.184,0,0,0,0,0,0,-4.1374,-4.139,-4.1416,-4.1448,-4.1462,-4.1546,-4.1509,-4.1512,-4.1535,-4.1532,-4.1564,-4.1567,-4.1571,-4.1633,-4.1644,-4.1679,-4.162,-4.1791,-4.1795,-4.18,-4.1836,-4.1845,-4.1852,0,0,0,0,0,-4.1369,-4.1424,-4.1418,-4.1431,-4.1496,-4.1548,-4.1557,-4.1561,-4.1538,-4.1565,-4.1579,-4.1566,-4.1668,-4.1639,-4.1652,-4.1688,-4.1789,-4.1794,-4.1799,-4.1832,-4.1843,-4.1852,0,0,0,0,0,0,-4.1395,-4.1428,-4.1422,-4.1488,-4.1516,-4.1545,-4.1579,-4.1571,-4.1605,-4.1601,-4.1603,-4.1611,-4.1671,-4.1685,-4.1652,-4.1757,-4.1725,-4.1733,-4.1746,-4.1756,-4.1764,-4.176,-4.1624,0,0,0,0,0,-4.1409,-4.145,-4.1475,-4.1532,-4.1546,-4.156,-4.1583,-4.1584,-4.1612,-4.1623,-4.1641,-4.1669,-4.1707,-4.1732,-4.1768,-4.1837,-4.1845,-4.1869,-4.1877,-4.1883,-4.189,-4.1929,-4.1941,-4.1819,-4.1819,-4.1819,0,0,-4.1438,-4.146,-4.1486,-4.1538,-4.1559,-4.1601,-4.157,-4.1615,-4.1646,-4.163,-4.1687,-4.1701,-4.1732,-4.1796,-4.1825,-4.181,-4.1925,-4.189,-4.1895,-4.1899,-4.1936,-4.1947,-4.1958,-4.1823,-4.1822,-4.1821,0,0,-4.1511,-4.1532,-4.1582,-4.1605,-4.1638,-4.1647,-4.1659,-4.1689,-4.1699,-4.1756,-4.1745,-4.1781,-4.1847,-4.187,-4.189,-4.1973,-4.1963,-4.1985,-4.2027,-4.2065,-4.2075,-4.2083,-4.2114,-4.2125,-4.1992,-4.1992,-4.1992,0,-4.1542,-4.1605,-4.1609,-4.1655,-4.1679,-4.1667,-4.1718,-4.1739,-4.1782,-4.1799,-4.1781,-4.1864,-4.1883,-4.1954,-4.1974,-4.1991,-4.2005,-4.1982,-4.2073,-4.2082,-4.209,-4.212,-4.2131,-4.1994,-4.1994,-4.1994,-4.1993,0,-4.1643,-4.1686,-4.1723,-4.1766,-4.1794,-4.1842,-4.1853,-4.188,-4.1878,-4.1889,-4.1948,-4.1971,-4.2013,-4.2029,-4.2027,-4.21,-4.2089,-4.2072,-4.204,-4.2104,-4.2132,-4.2143,-4.1998,-4.1997,-4.1996,-4.1996,0,0,-4.1735,-4.178,-4.1794,-4.1814,-4.185,-4.1884,-4.1931,-4.1973,-4.1997,-4.2027,-4.2068,-4.2124,-4.2109,-4.2132,-4.2132,-4.2165,-4.2232,-4.2145,-4.2145,-4.2161,-4.2315,-4.2328,-4.2341,-4.2225,-4.2227,-4.2229,-4.2313,0,-4.1813,-4.1898,-4.1903,-4.1981,-4.2022,-4.2011,-4.2053,-4.208,-4.2091,-4.2127,-4.2139,-4.218,-4.2156,-4.217,-4.2203,-4.2217,-4.2263,-4.2211,-4.2263,-4.2265,-4.2258,-4.2356,-4.237,-4.2448,-4.2323,-4.2325,-4.2326,0,-4.1915,-4.195,-4.2032,-4.2064,-4.2081,-4.2119,-4.2158,-4.2192,-4.2222,-4.2228,-4.2255,-4.2251,-4.23,-4.2265,-4.2334,-4.2298,-4.232,-4.233,-4.2333,-4.2339,-4.2301,-4.2366,-4.2473,-4.2485,-4.2343,-4.2342,-4.2341,0,-4.1976,-4.2043,-4.2102,-4.2119,-4.2157,-4.2184,-4.2201,-4.2228,-4.2254,-4.2287,-4.2304,-4.2342,-4.2364,-4.2394,-4.2401,-4.2375,-4.2469,-4.2435,-4.2476,-4.2476,-4.2498,-4.2497,-4.2611,-4.2509,-4.2509,-4.2509,-4.2508,0,-4.2064,-4.2115,-4.213,-4.2166,-4.2223,-4.2227,-4.2284,-4.2298,-4.2324,-4.2362,-4.2355,-4.2391,-4.2397,-4.2434,-4.244,-4.2496,-4.2505,-4.2512,-4.2513,-4.2514,-4.2513,-4.2529,-4.2524,-4.2512,-4.2511,-4.251,-4.251,0,-4.2142,-4.2154,-4.2217,-4.2248,-4.2257,-4.2298,-4.2325,-4.2359,-4.237,-4.2419,-4.243,-4.2447,-4.2491,-4.2501,-4.2552,-4.2556,-4.2624,-4.2618,-4.2614,-4.2614,-4.2656,-4.2652,-4.2786,-4.2804,-4.2688,-4.2689,-4.269,0,-4.2198,-4.2237,-4.2273,-4.2299,-4.2318,-4.2359,-4.2385,-4.2391,-4.2418,-4.2456,-4.2486,-4.2529,-4.2565,-4.2635,-4.2652,-4.2692,-4.2688,-4.2732,-4.2694,-4.2694,-4.2691,-4.2689,-4.2694,-4.274,-4.2741,-4.2742,-4.2743,0,-4.2296,-4.2301,-4.2339,-4.238,-4.2412,-4.2444,-4.2474,-4.2496,-4.2506,-4.2537,-4.2582,-4.261,-4.2663,-4.2707,-4.2747,-4.2763,-4.2756,-4.2755,-4.2767,-4.2769,-4.2765,-4.2769,-4.2636,-4.2752,-4.2751,-4.275,-4.275,-4.275,-4.2366,-4.2401,-4.2433,-4.2476,-4.25,-4.2529,-4.2563,-4.2579,-4.2617,-4.2662,-4.2663,-4.2713,-4.2742,-4.2796,-4.2815,-4.2854,-4.284,-4.2857,-4.2862,-4.2866,-4.2871,-4.2758,-4.2861,-4.2861,-4.286,-4.286,-4.286,0,-4.2465,-4.2485,-4.2525,-4.2569,-4.2603,-4.2593,-4.2627,-4.2656,-4.27,-4.2729,-4.2764,-4.2817,-4.2859,-4.2879,-4.2921,-4.2949,-4.2946,-4.296,-4.2958,-4.2963,-4.288,-4.2866,-4.2961,-4.2961,-4.2961,-4.2961,-4.2961,-4.2961,-4.2521,-4.2581,-4.2589,-4.266,-4.2679,-4.2729,-4.275,-4.2777,-4.28,-4.2859,-4.2895,-4.2908,-4.2933,-4.2977,-4.3016,-4.302,-4.3037,-4.3053,-4.3056,-4.2978,-4.2968,-4.2958,-4.2946,-4.3056,-4.3056,-4.3135,-4.3136,-4.3137]}]]